STARLINK-1147 (45095 NORAD) Tracking and Keplerian Element Data

This shows tracking and keplerian element data for the satellite.

Feedback or suggestion? Click here.




ElementValue
Catalog45095
NameSTARLINK-1147
Epoch Orbit162
Epoch Day93.91667824
Epoch Year2020
RAAN277.0795
Inclination53.0006
Eccentricity0.0001359
Argument of Perigee65.6243
Mean Anonmoly213.1809
Mean Motion15.62715025
Decay Rate0.00043974
L11 45095U 20006BD 20093.91667824 .00043974 00000-0 48418-3 0 9993
L22 45095 53.0006 277.0795 0001359 65.6243 213.1809 15.62715025 1627

Live tracking and technical data element details for STARLINK-1147 (NORAD 45095). STARLINK-1147 can be tracked NOW for your location showing map with azimuth and elevation plus other details from your city location.

Track the satellite on the map from your city or location and see movement details for azimuth, elevation, latitude, longitude, range, height, and movement on the map or in text.







IsCatalogInMostPopularTable: catalog: 45095, numindb: 12
Update: records affected: 1



GetName: 45095 STARLINK-1147

Hit Count: updated at: Sun, 05 Apr 2020 18:28:53 GMT